Location: Alma
(38.7220°N, 88.9090°W)
Time: 09:52:37
(UTC-06:00)

Vanguard 3 - Visible Passes

Search period start: 22 November 2019 00:00
Search period end: 02 December 2019 00:00
Orbit: 507 x 3263 km, 33.4° (Epoch: 21 November)

Date Brightness Start Highest point End Pass type
(mag) Time Alt. Az. Time Alt. Az. Time Alt. Az.
22 Nov 10.2 17:47:18 10° W 18:04:48 51° SSW 18:16:04 10° SE visible
22 Nov 10.5 20:07:41 10° W 20:16:31 19° SW 20:23:07 10° S visible
23 Nov 10.5 18:48:06 10° W 19:02:31 34° SW 19:12:13 10° SSE visible
24 Nov 10.5 17:29:47 10° W 17:47:36 49° SSW 17:59:42 10° SE visible
24 Nov 10.8 19:50:48 10° W 19:59:27 17° SW 20:06:12 10° SSW visible
25 Nov 10.7 18:30:44 10° W 18:45:19 31° SW 18:55:38 10° SSE visible
26 Nov 10.7 17:12:22 10° W 17:30:18 46° SSW 17:43:11 10° SE visible
26 Nov 11.0 19:34:07 10° W 19:42:17 16° SW 19:48:56 10° SSW visible
27 Nov 10.9 18:13:28 10° W 18:28:01 29° SW 18:38:51 10° S visible
28 Nov 11.0 16:55:03 10° W 17:12:52 43° SW 17:26:29 10° SSE visible
28 Nov 11.3 19:17:47 10° W 19:25:02 14° SW 19:31:14 10° SSW visible
29 Nov 11.1 17:56:21 10° W 18:10:37 27° SW 18:21:50 10° S visible
30 Nov 11.2 16:37:52 10° W 16:55:22 41° SW 17:09:36 10° SSE visible
30 Nov 11.5 19:02:04 10° WSW 19:07:43 12° SW 19:12:49 10° SW visible
01 Dec 11.4 17:39:26 10° W 17:53:08 24° SW 18:04:33 10° S visible
